Location: Martz Observatory
(42.0083°N, 79.0667°W)
Time: 14:58:41
(UTC-05:00)

Daily predictions for brighter satellites

Satellite Brightness Start Highest point End
(mag) Time Altitude Azimuth Time Altitude Azimuth Time Altitude Azimuth
Cosmos 2322 4.1 18:24:57 10° NNW 18:30:40 73° WSW 18:36:20 10° SSE
Cosmos 1484 Rocket 3.7 18:27:10 10° S 18:31:01 54° W 18:34:49 10° NNW
Cosmos 2285 Rocket 4.4 18:26:40 10° N 18:32:49 44° ENE 18:38:53 10° SE
Cosmos 1300 Rocket 3.6 18:28:27 10° S 18:32:52 79° E 18:37:20 10° N
Cosmos 1238 Rocket 2.1 18:32:14 10° N 18:35:12 87° E 18:38:19 10° S
Hubble Space Telescope 3.2 18:39:18 10° SSW 18:40:49 12° S 18:42:22 10° SSE
Cosmos 2237 Rocket 3.2 18:37:05 10° N 18:41:55 27° NE 18:46:44 10° ESE
Cosmos 614 Rocket 4.1 18:38:12 10° SSW 18:43:16 79° WNW 18:48:22 10° NNE
Cosmos 2297 Rocket 3.5 18:40:46 10° SE 18:44:18 17° E 18:47:51 10° ENE
Cosmos 405 Rocket 3.8 18:43:29 10° NNE 18:46:54 25° ENE 18:50:14 10° SE
Cosmos 1140 Rocket 4.3 18:41:59 10° SW 18:47:01 56° WNW 18:52:08 10° NNE
Cosmos 1741 Rocket 4.0 18:42:35 10° SSW 18:47:48 90° ESE 18:53:03 10° NNE
Cosmos 2333 4.2 18:42:04 10° NNW 18:47:49 73° ENE 18:53:34 10° SSE
COSMO-SKYMED 1 3.4 18:45:07 10° N 18:49:22 55° WNW 18:53:36 10° SSW
ALOS 2.6 18:46:22 10° SE 18:50:45 43° ENE 18:55:11 10° N
Cosmos 2219 Rocket 2.4 18:45:57 10° NNW 18:51:25 50° ENE 18:56:51 10° SE
COSMOS 2428 2.7 18:46:05 10° NNW 18:51:49 89° ENE 18:57:31 10° SSE
Cosmos 2360 Rocket 3.7 18:47:30 10° NW 18:52:47 41° WSW 18:58:04 10° S
H-2A R/B 3.8 18:50:09 10° SE 18:53:14 25° ENE 18:56:22 10° NNE
CZ-2D R/B 4.5 18:55:01 10° ESE 18:57:59 22° ENE 19:00:58 10° NNE
Meteor 2-4 Rocket 3.6 18:53:53 10° N 18:59:25 90° E 19:04:47 10° S
SJ-6B 2.7 18:55:41 10° SSE 18:59:38 74° ENE 19:03:30 10° N
USA 229 DEB 3.8 18:53:18 10° NW 19:00:28 85° NE 19:07:45 10° SE
USA 229 3.8 18:53:24 10° NW 19:00:34 84° NE 19:07:51 10° SE
Cosmos 2227 Rocket 2.8 18:59:49 10° SSE 19:04:50 34° ESE 19:09:54 10° NE
Cosmos 2219 3.5 18:59:57 10° SSW 19:05:41 75° WNW 19:11:28 10° NNE
BREEZE-M DEB (TANK) 3.4 19:04:55 10° NW 19:07:59 69° NNE 19:15:07 14° ESE
Cosmos 468 Rocket 4.1 19:03:34 10° NNW 19:08:44 55° ENE 19:13:55 10° SE
Resurs 01 Rocket 1.8 19:05:46 10° SE 19:09:59 49° ENE 19:14:15 10° N
Meteor 1-23 Rocket 4.3 19:04:44 10° N 19:10:33 90° W 19:16:17 10° S
USA 215 4.5 19:06:00 10° NE 19:11:49 36° NNW 19:17:37 10° W
NOSS 3-1 (A) 4.4 19:05:48 10° NNW 19:12:55 44° NE 19:19:04 17° ESE
Cosmos 1441 Rocket 4.4 19:10:01 10° NNE 19:13:16 23° ENE 19:14:08 22° E
SL-08 ROCKET BODY 4.5 19:07:08 10° S 19:13:20 90° SSW 19:19:34 10° N
Gbstr 26 Del rocket 4.2 19:11:26 10° W 19:14:49 29° NNW 19:17:54 11° NE
Cosmos 1025 Rocket 3.1 19:10:28 10° N 19:14:52 84° W 19:19:16 10° S
Resurs 1-3 3.8 19:11:23 10° SE 19:15:35 47° ENE 19:19:48 10° N
Spot 2 Rocket 3.5 19:11:28 10° SSE 19:16:24 57° ENE 19:21:24 10° N
Cosmos 2327 Rocket 4.5 19:10:34 10° S 19:16:49 80° E 19:23:12 10° N
ATLAS 2AS CENTAUR R/B 4.4 19:11:23 10° NNW 19:17:28 22° NNE 19:21:49 15° ENE
Okean 1 Rocket 4.3 19:13:24 10° SSW 19:17:42 45° WNW 19:22:02 10° N
SL-16 R/B 3.3 19:14:38 10° N 19:19:14 24° NE 19:21:05 21° E
Cosmos 1892 Rocket 3.6 19:16:26 10° N 19:20:45 57° E 19:25:04 10° SSE
FREGAT/IRIS 3.8 19:18:02 10° S 19:21:01 45° W 19:24:01 10° NNW
GEOS 3 Rocket 4.2 19:20:20 16° ENE 19:24:01 35° ESE 19:28:49 10° S
Atlas Centaur 2 4.1 19:21:48 10° SSW 19:27:18 21° SSE 19:30:22 16° SE
GPS 2-04 Rocket1 4.0 19:23:43 10° WSW 19:27:33 33° S 19:29:35 22° SE
NOSS 3-1 (C) 4.1 19:22:22 10° NNW 19:29:51 65° NE 19:36:32 17° SE
Meteor 2-13 Rocket 4.3 19:24:26 10° S 19:30:28 73° E 19:36:34 10° NNE
Abrixas rocket 3.5 19:28:01 10° W 19:31:10 35° NNW 19:32:36 24° NNE
OTV 4 1.4 19:28:47 10° WSW 19:31:30 32° S 19:31:45 32° SSE
Cosmos 1814 Rocket 3.9 19:26:59 10° NNW 19:32:08 66° ENE 19:36:39 13° SSE
Okean 2 3.5 19:28:24 10° N 19:32:35 77° W 19:36:46 10° S
Envisat 3.8 19:32:28 27° E 19:33:10 28° ENE 19:37:27 10° N
FENGYUN 3A 3.8 19:28:02 10° S 19:33:27 78° WSW 19:38:54 10° NNW
Cosmos 2074 Rocket 4.4 19:30:43 10° SSW 19:36:56 67° W 19:43:13 10° N
HJ-1C 4.4 19:36:15 10° S 19:39:31 48° W 19:42:48 10° NNW
Cosmos 1980 3.6 19:36:21 10° NNW 19:42:02 82° ENE 19:46:48 15° SSE
USA 186 3.9 19:45:05 14° N 19:45:05 14° N 19:45:36 10° N
NOSS 0 Rocket 4.0 19:36:55 10° NNW 19:43:04 80° WSW 19:49:12 10° SSE
Cosmos 1544 Rocket 3.4 19:38:57 10° S 19:43:16 87° E 19:47:36 10° N
Cosmos 2333 Rocket 2.4 19:39:44 10° NNW 19:45:30 76° WSW 19:51:14 10° SSE
Helios 1B rocket 2.5 19:42:26 10° NNE 19:46:31 53° E 19:50:34 10° S
USA 32 4.1 19:43:43 10° N 19:48:50 51° E 19:51:05 30° SE
Aureole 2 Rocket 4.2 19:47:18 10° N 19:48:31 19° N 19:48:31 19° N
Helios 1A 2.8 19:52:55 38° SSE 19:54:27 78° ENE 19:58:36 10° N
Cosmos 1975 2.7 19:51:52 10° S 19:55:53 81° E 19:59:59 10° N
Cosmos 1437 3.3 19:52:43 10° NNW 19:55:58 58° W 19:56:58 38° SSW
Cosmos 1500 3.0 19:54:19 10° S 19:58:06 83° E 20:01:53 10° N
Cosmos 1602 Rocket 4.0 19:54:15 10° N 19:57:52 45° NE 19:57:52 45° NE
Nadezhda 3 Rocket 3.9 19:55:44 10° N 20:01:56 85° W 20:08:09 10° S
Cosmos 1626 Rocket 3.8 19:58:15 10° N 20:02:07 53° NE 20:02:07 53° NE
Cosmos 1515 4.0 20:00:16 10° NNW 20:04:06 65° W 20:05:38 33° SSW
Cosmos 1486 Rocket 4.0 19:59:31 10° SSW 20:04:51 86° WNW 20:10:12 10° NNE
Cosmos 2082 3.7 20:02:53 10° SSW 20:08:37 82° WNW 20:14:22 10° NNE
Cosmos 841 Rocket 3.3 20:04:24 10° NNW 20:09:34 82° ENE 20:10:37 57° SSE
Spot 1 4.3 20:11:15 37° SSW 20:12:41 62° WSW 20:16:53 10° NNW
ATLAS CENTAUR R/B 3.2 20:11:30 10° WSW 20:13:24 24° WSW 20:13:24 24° WSW
Cosmos 2154 Rocket 4.3 20:09:10 10° SSW 20:15:28 67° W 20:21:47 10° N
Cosmos 540 Rocket 4.4 20:11:45 10° N 20:15:14 34° NNE 20:15:14 34° NNE
Cosmos 2341 Rocket 4.0 20:11:01 10° S 20:17:24 85° W 20:23:50 10° N
Cosmos 1763 Rocket 3.7 20:13:11 10° NNW 20:18:19 69° WSW 20:20:13 38° S
Cosmos 1455 Rocket 4.1 20:16:21 10° SSW 20:20:32 44° WNW 20:24:44 10° N
Hubble Space Telescope 3.5 20:20:06 10° SSW 20:20:16 10° SSW 20:20:16 10° SSW
Cosmos 2237 Rocket 3.1 20:20:45 10° NW 20:26:12 47° WSW 20:29:45 21° S
Cosmos 332 Rocket 4.1 20:22:34 10° NNW 20:27:24 63° WSW 20:28:04 56° SW
Cosmos 2297 Rocket 2.5 20:22:06 10° SSW 20:27:43 67° WNW 20:33:22 10° NNE
Meteor 2-8 Rocket 4.4 20:21:48 10° N 20:27:52 81° W 20:30:43 34° S
Meteor 2-19 Rocket 4.3 20:23:08 10° S 20:29:16 86° E 20:35:28 10° N
Cosmos 2219 Rocket 4.3 20:30:40 10° NW 20:34:58 23° W 20:39:16 10° SSW
Cosmos 371 Rocket 3.6 20:31:18 10° NNW 20:35:46 65° WNW 20:35:46 65° WNW
Resurs 01 Rocket 4.5 20:44:06 10° SW 20:46:44 16° W 20:49:23 10° NW
Cosmos 2227 Rocket 3.6 20:43:39 10° WSW 20:48:50 36° WNW 20:54:02 10° N
ERS-1 Rocket 4.5 21:05:00 31° NNW 21:05:00 31° NNW 21:07:37 10° NNW
SL-16 R/B 2.9 20:58:09 10° NNW 21:03:01 52° W 21:03:01 52° W
ATLAS 2AS CENTAUR R/B 3.2 21:02:14 10° NNW 21:09:17 58° NNE 21:09:17 58° NNE
Envisat 4.4 21:12:39 34° W 21:12:39 34° W 21:16:42 10° NNW
Atlas Centaur 2 4.3 21:10:08 10° SW 21:13:02 20° SW 21:13:02 20° SW
